Погода в Ермиловке

Россия / Омская область     57°38′10″N   72°54′48″E
темп.,
°C
ветер,
м/с
пор.,
м/с
влажн.,
%
обл.,
%
осадки,
мм/ч
давл.,
гПа
погр.,
м
2 марта, вт
вт200:00−17в129799 0.3 101525
03:00−18юв119886 0.1 101520
06:00−21ю0110087 0.1 101520
09:00−19ю129997 0.1 101428
12:00−14ююз249398 0.1 1014358
15:00−12ю3490100 0.1 1013498
18:00−13ю3694100 0.1 1012344
21:00−17ю3897100 0.1 1011219
3 марта, ср
ср300:00−19ю399991 0.1 1011212
03:00−19ю3998100 0.0 1010233
06:00−20ю499898 0.1 1010248
09:00−19ю51197100 0.0 1008332
12:00−14ю51191100 0.0 1007495
15:00−11ю61290100 0.1 1006637
18:00−12ю61193100 0.8 1006758
21:00−12ю51293100 0.4 1005700
4 марта, чт
чт400:00−11ююз41193100 0.6 1005541
03:00−10ю41194100 0.2 1004445
06:00−9ю41094100 0.4 1003414
09:00−6ю41094100 0.3 1001526
12:00−2ю5994100 0.8 1000735
15:00−1ю5995100 0.8 998762
18:00−1ю3997100 1.7 997713
21:00−1ююз41097100 0.8 995641
5 марта, пт
пт500:00−1ююз51195100 1.6 995727
03:00−4зюз41091100 0.3 995495
06:00−7юз51193100 0.3 998538
09:00−8юз51293100 0.2 1001721
12:00−7юз5108896 0.3 1003678
15:00−5ююз598993 0.0 1003772
18:00−8ююз5109296 0.4 1003860
21:00−8ю51294100 0.3 1001653
6 марта, сб
сб600:00−4ю51295100 1.1 998714
03:00−2юз61393100 0.8 9971072
06:00−3зюз51288100 1.3 998717
09:00−4з489199 0.1 999702
12:00−4з478999 0.3 1001904
15:00−4з5786100 0.3 10021078
18:00−6зюз4891100 0.6 1004799
21:00−8зюз41094100 0.3 1006651